Hourly Data Report for December 04, 2019

All times are specified in Local Standard Time (LST). Add 1 hour to adjust for Daylight Saving Time where and when it is observed.

SATURNA ISLAND CS
BRITISH COLUMBIA
Current Station Operator: ECCC - MSC

48°47'02.067" N
123°02'41.082" W
24.40 m
1017101
71473
WEZ

Download Data

Hourly Data (December 2019)
Hourly Data Report for December 4, 2019
TIME Temp Definition
°C
Dew Point Definition
°C
Rel Hum Definition
%
Wind Dir Definition
10's deg

Wind Spd Definition
km/h
Visibility Definition
km
Stn Press Definition
kPa
Hmdx Definition


Wind Chill Definition


Weather Definition


00:00 9.7 7.7 87 20 30   100.96     LegendNANA
01:00 9.9 7.4 85 19 26   100.90     LegendNANA
02:00 9.4 7.3 87 22 12   100.88     LegendNANA
03:00 9.6 7.1 84 20 15   100.83     LegendNANA
04:00 8.8 7.5 91 20 15   100.81     LegendNANA
05:00 8.5 7.7 95 20 14   100.79     LegendNANA
06:00 9.0 8.0 94 18 20   100.77     LegendNANA
07:00 8.7 7.9 95 20 19   100.79     LegendNANA
08:00 7.8 7.2 96 31 3   100.83     LegendNANA
09:00 7.4 6.9 97 35 3   100.90     LegendNANA
10:00 7.2 6.7 97 29 5   100.96     LegendNANA
11:00 7.0 6.3 96 27 5   100.98     LegendNANA
12:00 7.3 5.8 90 30 5   100.99     LegendNANA
13:00 7.5 5.5 87 32 6   100.97     LegendNANA
14:00 7.6 5.0 84 31 6   100.96     LegendNANA
15:00 7.3 4.1 80 31 8   100.95     LegendNANA
16:00 7.1 4.1 81 32 9   100.98     LegendNANA
17:00 7.0 4.0 81 32 10   100.99     LegendNANA
18:00 7.0 4.2 82 29 7   101.02     LegendNANA
19:00 6.9 4.8 86 32 12   101.04     LegendNANA
20:00 7.1 5.0 87 33 11   101.09     LegendNANA
21:00 6.8 5.1 89 33 10   101.06     LegendNANA
22:00 7.1 5.2 88 31 8   101.12     LegendNANA
23:00 6.9 4.8 87 31 11   101.18     LegendNANA

Notes on Data Quality.

Legend

  • E = Estimated
  • M = Missing
  • NA = Not Available
Date modified: